Year,Month,Day,Hour,Minute,Value (Times are PST for temperature in C)
2011,04,06,00,00,4.90
2011,04,06,00,01,4.90
2011,04,06,00,02,4.90
2011,04,06,00,03,4.90
2011,04,06,00,04,4.90
2011,04,06,00,05,4.90
2011,04,06,00,06,4.90
2011,04,06,00,07,4.90
2011,04,06,00,08,4.90
2011,04,06,00,09,4.90
2011,04,06,00,10,4.90
2011,04,06,00,11,4.90
2011,04,06,00,12,4.90
2011,04,06,00,13,4.90
2011,04,06,00,14,4.90
2011,04,06,00,15,5.00
2011,04,06,00,16,5.00
2011,04,06,00,17,5.00
2011,04,06,00,18,5.00
2011,04,06,00,19,5.00
2011,04,06,00,20,5.00
2011,04,06,00,21,5.10
2011,04,06,00,22,5.10
2011,04,06,00,23,5.10
2011,04,06,00,24,5.00
2011,04,06,00,25,5.00
2011,04,06,00,26,5.00
2011,04,06,00,27,5.00
2011,04,06,00,28,5.00
2011,04,06,00,29,5.00
2011,04,06,00,30,4.90
2011,04,06,00,31,4.80
2011,04,06,00,32,4.70
2011,04,06,00,33,4.70
2011,04,06,00,34,4.60
2011,04,06,00,35,4.50
2011,04,06,00,36,4.50
2011,04,06,00,37,4.40
2011,04,06,00,38,4.40
2011,04,06,00,39,4.30
2011,04,06,00,40,4.30
2011,04,06,00,41,4.20
2011,04,06,00,42,4.10
2011,04,06,00,43,4.10
2011,04,06,00,44,4.00
2011,04,06,00,45,4.00
2011,04,06,00,46,3.90
2011,04,06,00,47,3.90
2011,04,06,00,48,3.90
2011,04,06,00,49,3.80
2011,04,06,00,50,3.80
2011,04,06,00,51,3.80
2011,04,06,00,52,3.80
2011,04,06,00,53,3.80
2011,04,06,00,54,3.80
2011,04,06,00,55,3.80
2011,04,06,00,56,3.80
2011,04,06,00,57,3.80
2011,04,06,00,58,3.80
2011,04,06,00,59,3.80
2011,04,06,01,00,3.80
2011,04,06,01,01,3.90
2011,04,06,01,02,3.90
2011,04,06,01,03,3.90
2011,04,06,01,04,3.90
2011,04,06,01,05,3.90
2011,04,06,01,06,3.90
2011,04,06,01,07,3.90
2011,04,06,01,08,3.90
2011,04,06,01,09,3.90
2011,04,06,01,10,3.90
2011,04,06,01,11,3.90
2011,04,06,01,12,3.90
2011,04,06,01,13,4.00
2011,04,06,01,14,4.00
2011,04,06,01,15,4.10
2011,04,06,01,16,4.10
2011,04,06,01,17,4.10
2011,04,06,01,18,4.10
2011,04,06,01,19,4.10
2011,04,06,01,20,4.10
2011,04,06,01,21,4.10
2011,04,06,01,22,4.10
2011,04,06,01,23,4.10
2011,04,06,01,24,4.10
2011,04,06,01,25,4.20
2011,04,06,01,26,4.20
2011,04,06,01,27,4.20
2011,04,06,01,28,4.20
2011,04,06,01,29,4.10
2011,04,06,01,30,4.10
2011,04,06,01,31,4.10
2011,04,06,01,32,4.10
2011,04,06,01,33,4.10
2011,04,06,01,34,4.00
2011,04,06,01,35,4.00
2011,04,06,01,36,4.00
2011,04,06,01,37,3.90
2011,04,06,01,38,3.90
2011,04,06,01,39,3.90
2011,04,06,01,40,3.90
2011,04,06,01,41,3.90
2011,04,06,01,42,3.90
2011,04,06,01,43,3.90
2011,04,06,01,44,3.80
2011,04,06,01,45,3.80
2011,04,06,01,46,3.80
2011,04,06,01,47,3.80
2011,04,06,01,48,3.80
2011,04,06,01,49,3.80
2011,04,06,01,50,3.80
2011,04,06,01,51,3.80
2011,04,06,01,52,3.70
2011,04,06,01,53,3.70
2011,04,06,01,54,3.70
2011,04,06,01,55,3.70
2011,04,06,01,56,3.70
2011,04,06,01,57,3.70
2011,04,06,01,58,3.70
2011,04,06,01,59,3.70
2011,04,06,02,00,3.70
2011,04,06,02,01,3.70
2011,04,06,02,02,3.70
2011,04,06,02,03,3.70
2011,04,06,02,04,3.70
2011,04,06,02,05,3.60
2011,04,06,02,06,3.60
2011,04,06,02,07,3.60
2011,04,06,02,08,3.60
2011,04,06,02,09,3.60
2011,04,06,02,10,3.60
2011,04,06,02,11,3.60
2011,04,06,02,12,3.60
2011,04,06,02,13,3.60
2011,04,06,02,14,3.60
2011,04,06,02,15,3.60
2011,04,06,02,16,3.60
2011,04,06,02,17,3.60
2011,04,06,02,18,3.60
2011,04,06,02,19,3.60
2011,04,06,02,20,3.60
2011,04,06,02,21,3.60
2011,04,06,02,22,3.60
2011,04,06,02,23,3.60
2011,04,06,02,24,3.60
2011,04,06,02,25,3.60
2011,04,06,02,26,3.60
2011,04,06,02,27,3.60
2011,04,06,02,28,3.60
2011,04,06,02,29,3.60
2011,04,06,02,30,3.60
2011,04,06,02,31,3.60
2011,04,06,02,32,3.60
2011,04,06,02,33,3.60
2011,04,06,02,34,3.60
2011,04,06,02,35,3.60
2011,04,06,02,36,3.60
2011,04,06,02,37,3.60
2011,04,06,02,38,3.60
2011,04,06,02,39,3.60
2011,04,06,02,40,3.70
2011,04,06,02,41,3.70
2011,04,06,02,42,3.70
2011,04,06,02,43,3.70
2011,04,06,02,44,3.70
2011,04,06,02,45,3.70
2011,04,06,02,46,3.70
2011,04,06,02,47,3.70
2011,04,06,02,48,3.70
2011,04,06,02,49,3.70
2011,04,06,02,50,3.80
2011,04,06,02,51,3.80
2011,04,06,02,52,3.80
2011,04,06,02,53,3.80
2011,04,06,02,54,3.80
2011,04,06,02,55,3.80
2011,04,06,02,56,3.80
2011,04,06,02,57,3.70
2011,04,06,02,58,3.70
2011,04,06,02,59,3.70
2011,04,06,03,00,3.70
2011,04,06,03,01,3.70
2011,04,06,03,02,3.70
2011,04,06,03,03,3.60
2011,04,06,03,04,3.60
2011,04,06,03,05,3.60
2011,04,06,03,06,3.60
2011,04,06,03,07,3.60
2011,04,06,03,08,3.50
2011,04,06,03,09,3.50
2011,04,06,03,10,3.50
2011,04,06,03,11,3.50
2011,04,06,03,12,3.40
2011,04,06,03,13,3.40
2011,04,06,03,14,3.40
2011,04,06,03,15,3.40
2011,04,06,03,16,3.30
2011,04,06,03,17,3.30
2011,04,06,03,18,3.30
2011,04,06,03,19,3.30
2011,04,06,03,20,3.20
2011,04,06,03,21,3.20
2011,04,06,03,22,3.10
2011,04,06,03,23,3.00
2011,04,06,03,24,3.00
2011,04,06,03,25,2.90
2011,04,06,03,26,2.90
2011,04,06,03,27,2.90
2011,04,06,03,28,2.80
2011,04,06,03,29,2.80
2011,04,06,03,30,2.80
2011,04,06,03,31,2.80
2011,04,06,03,32,2.80
2011,04,06,03,33,2.80
2011,04,06,03,34,2.70
2011,04,06,03,35,2.70
2011,04,06,03,36,2.70
2011,04,06,03,37,2.70
2011,04,06,03,38,2.70
2011,04,06,03,39,2.70
2011,04,06,03,40,2.60
2011,04,06,03,41,2.60
2011,04,06,03,42,2.60
2011,04,06,03,43,2.60
2011,04,06,03,44,2.50
2011,04,06,03,45,2.50
2011,04,06,03,46,2.50
2011,04,06,03,47,2.40
2011,04,06,03,48,2.40
2011,04,06,03,49,2.40
2011,04,06,03,50,2.40
2011,04,06,03,51,2.30
2011,04,06,03,52,2.30
2011,04,06,03,53,2.30
2011,04,06,03,54,2.30
2011,04,06,03,55,2.20
2011,04,06,03,56,2.20
2011,04,06,03,57,2.20
2011,04,06,03,58,2.20
2011,04,06,03,59,2.20
2011,04,06,04,00,2.20
2011,04,06,04,01,2.20
2011,04,06,04,02,2.20
2011,04,06,04,03,2.20
2011,04,06,04,04,2.20
2011,04,06,04,05,2.20
2011,04,06,04,06,2.20
2011,04,06,04,07,2.20
2011,04,06,04,08,2.20
2011,04,06,04,09,2.20
2011,04,06,04,10,2.20
2011,04,06,04,11,2.20
2011,04,06,04,12,2.20
2011,04,06,04,13,2.20
2011,04,06,04,14,2.20
2011,04,06,04,15,2.20
2011,04,06,04,16,2.20
2011,04,06,04,17,2.10
2011,04,06,04,18,2.10
2011,04,06,04,19,2.10
2011,04,06,04,20,2.00
2011,04,06,04,21,2.00
2011,04,06,04,22,2.00
2011,04,06,04,23,1.90
2011,04,06,04,24,1.90
2011,04,06,04,25,1.90
2011,04,06,04,26,1.90
2011,04,06,04,27,1.90
2011,04,06,04,28,1.90
2011,04,06,04,29,1.90
2011,04,06,04,30,1.90
2011,04,06,04,31,1.90
2011,04,06,04,32,1.90
2011,04,06,04,33,1.80
2011,04,06,04,34,1.80
2011,04,06,04,35,1.80
2011,04,06,04,36,1.80
2011,04,06,04,37,1.80
2011,04,06,04,38,1.80
2011,04,06,04,39,1.80
2011,04,06,04,40,1.80
2011,04,06,04,41,1.80
2011,04,06,04,42,1.80
2011,04,06,04,43,1.80
2011,04,06,04,44,1.80
2011,04,06,04,45,1.80
2011,04,06,04,46,1.80
2011,04,06,04,47,1.70
2011,04,06,04,48,1.70
2011,04,06,04,49,1.70
2011,04,06,04,50,1.70
2011,04,06,04,51,1.70
2011,04,06,04,52,1.70
2011,04,06,04,53,1.70
2011,04,06,04,54,1.70
2011,04,06,04,55,1.70
2011,04,06,04,56,1.70
2011,04,06,04,57,1.70
2011,04,06,04,58,1.70
2011,04,06,04,59,1.60
2011,04,06,05,00,1.60
2011,04,06,05,01,1.60
2011,04,06,05,02,1.60
2011,04,06,05,03,1.60
2011,04,06,05,04,1.50
2011,04,06,05,05,1.50
2011,04,06,05,06,1.50
2011,04,06,05,07,1.50
2011,04,06,05,08,1.50
2011,04,06,05,09,1.50
2011,04,06,05,10,1.50
2011,04,06,05,11,1.40
2011,04,06,05,12,1.50
2011,04,06,05,13,1.40
2011,04,06,05,14,1.40
2011,04,06,05,15,1.50
2011,04,06,05,16,1.50
2011,04,06,05,17,1.50
2011,04,06,05,18,1.50
2011,04,06,05,19,1.50
2011,04,06,05,20,1.40
2011,04,06,05,21,1.40
2011,04,06,05,22,1.40
2011,04,06,05,23,1.40
2011,04,06,05,24,1.40
2011,04,06,05,25,1.40
2011,04,06,05,26,1.40
2011,04,06,05,27,1.40
2011,04,06,05,28,1.40
2011,04,06,05,29,1.40
2011,04,06,05,30,1.40
2011,04,06,05,31,1.40
2011,04,06,05,32,1.40
2011,04,06,05,33,1.40
2011,04,06,05,34,1.40
2011,04,06,05,35,1.40
2011,04,06,05,36,1.40
2011,04,06,05,37,1.40
2011,04,06,05,38,1.40
2011,04,06,05,39,1.40
2011,04,06,05,40,1.40
2011,04,06,05,41,1.40
2011,04,06,05,42,1.40
2011,04,06,05,43,1.40
2011,04,06,05,44,1.40
2011,04,06,05,45,1.30
2011,04,06,05,46,1.30
2011,04,06,05,47,1.30
2011,04,06,05,48,1.30
2011,04,06,05,49,1.30
2011,04,06,05,50,1.30
2011,04,06,05,51,1.30
2011,04,06,05,52,1.30
2011,04,06,05,53,1.30
2011,04,06,05,54,1.30
2011,04,06,05,55,1.30
2011,04,06,05,56,1.30
2011,04,06,05,57,1.30
2011,04,06,05,58,1.30
2011,04,06,05,59,1.30
2011,04,06,06,00,1.30
2011,04,06,06,01,1.30
2011,04,06,06,02,1.30
2011,04,06,06,03,1.30
2011,04,06,06,04,1.20
2011,04,06,06,05,1.20
2011,04,06,06,06,1.20
2011,04,06,06,07,1.30
2011,04,06,06,08,1.30
2011,04,06,06,09,1.20
2011,04,06,06,10,1.20
2011,04,06,06,11,1.20
2011,04,06,06,12,1.20
2011,04,06,06,13,1.20
2011,04,06,06,14,1.20
2011,04,06,06,15,1.20
2011,04,06,06,16,1.10
2011,04,06,06,17,1.20
2011,04,06,06,18,1.10
2011,04,06,06,19,1.10
2011,04,06,06,20,1.10
2011,04,06,06,21,1.10
2011,04,06,06,22,1.10
2011,04,06,06,23,1.10
2011,04,06,06,24,1.10
2011,04,06,06,25,1.10
2011,04,06,06,26,1.10
2011,04,06,06,27,1.10
2011,04,06,06,28,1.10
2011,04,06,06,29,1.10
2011,04,06,06,30,1.10
2011,04,06,06,31,1.10
2011,04,06,06,32,1.10
2011,04,06,06,33,1.10
2011,04,06,06,34,1.10
2011,04,06,06,35,1.10
2011,04,06,06,36,1.10
2011,04,06,06,37,1.10
2011,04,06,06,38,1.10
2011,04,06,06,39,1.10
2011,04,06,06,40,1.10
2011,04,06,06,41,1.10
2011,04,06,06,42,1.10
2011,04,06,06,43,1.10
2011,04,06,06,44,1.10
2011,04,06,06,45,1.10
2011,04,06,06,46,1.10
2011,04,06,06,47,1.10
2011,04,06,06,48,1.10
2011,04,06,06,49,1.10
2011,04,06,06,50,1.10
2011,04,06,06,51,1.10
2011,04,06,06,52,1.10
2011,04,06,06,53,1.10
2011,04,06,06,54,1.10
2011,04,06,06,55,1.10
2011,04,06,06,56,1.10
2011,04,06,06,57,1.00
2011,04,06,06,58,1.00
2011,04,06,06,59,1.00
2011,04,06,07,00,0.90
2011,04,06,07,01,0.90
2011,04,06,07,02,0.90
2011,04,06,07,03,0.80
2011,04,06,07,04,0.80
2011,04,06,07,05,0.80
2011,04,06,07,06,0.80
2011,04,06,07,07,0.80
2011,04,06,07,08,0.80
2011,04,06,07,09,0.80
2011,04,06,07,10,0.80
2011,04,06,07,11,0.80
2011,04,06,07,12,0.80
2011,04,06,07,13,0.80
2011,04,06,07,14,0.80
2011,04,06,07,15,0.80
2011,04,06,07,16,0.80
2011,04,06,07,17,0.80
2011,04,06,07,18,0.80
2011,04,06,07,19,0.80
2011,04,06,07,20,0.80
2011,04,06,07,21,0.80
2011,04,06,07,22,0.80
2011,04,06,07,23,0.80
2011,04,06,07,24,0.80
2011,04,06,07,25,0.80
2011,04,06,07,26,0.80
2011,04,06,07,27,0.70
2011,04,06,07,28,0.70
2011,04,06,07,29,0.70
2011,04,06,07,30,0.70
2011,04,06,07,31,0.70
2011,04,06,07,32,0.70
2011,04,06,07,33,0.70
2011,04,06,07,34,0.70
2011,04,06,07,35,0.70
2011,04,06,07,36,0.70
2011,04,06,07,37,0.70
2011,04,06,07,38,0.70
2011,04,06,07,39,0.70
2011,04,06,07,40,0.70
2011,04,06,07,41,0.70
2011,04,06,07,42,0.70
2011,04,06,07,43,0.70
2011,04,06,07,44,0.70
2011,04,06,07,45,0.70
2011,04,06,07,46,0.80
2011,04,06,07,47,0.80
2011,04,06,07,48,0.80
2011,04,06,07,49,0.90
2011,04,06,07,50,0.90
2011,04,06,07,51,0.90
2011,04,06,07,52,1.00
2011,04,06,07,53,1.00
2011,04,06,07,54,1.10
2011,04,06,07,55,1.10
2011,04,06,07,56,1.20
2011,04,06,07,57,1.20
2011,04,06,07,58,1.20
2011,04,06,07,59,1.30
2011,04,06,08,00,1.30
2011,04,06,08,01,1.30
2011,04,06,08,02,1.40
2011,04,06,08,03,1.40
2011,04,06,08,04,1.40
2011,04,06,08,05,1.50
2011,04,06,08,06,1.50
2011,04,06,08,07,1.50
2011,04,06,08,08,1.50
2011,04,06,08,09,1.60
2011,04,06,08,10,1.60
2011,04,06,08,11,1.60
2011,04,06,08,12,1.60
2011,04,06,08,13,1.70
2011,04,06,08,14,1.70
2011,04,06,08,15,1.70
2011,04,06,08,16,1.70
2011,04,06,08,17,1.70
2011,04,06,08,18,1.70
2011,04,06,08,19,1.70
2011,04,06,08,20,1.70
2011,04,06,08,21,1.70
2011,04,06,08,22,1.70
2011,04,06,08,23,1.70
2011,04,06,08,24,1.70
2011,04,06,08,25,1.70
2011,04,06,08,26,1.70
2011,04,06,08,27,1.70
2011,04,06,08,28,1.70
2011,04,06,08,29,1.70
2011,04,06,08,30,1.70
2011,04,06,08,31,1.70
2011,04,06,08,32,1.70
2011,04,06,08,33,1.70
2011,04,06,08,34,1.70
2011,04,06,08,35,1.70
2011,04,06,08,36,1.70
2011,04,06,08,37,1.70
2011,04,06,08,38,1.70
2011,04,06,08,39,1.70
2011,04,06,08,40,1.70
2011,04,06,08,41,1.80
2011,04,06,08,42,1.80
2011,04,06,08,43,1.80
2011,04,06,08,44,1.70
2011,04,06,08,45,1.70
2011,04,06,08,46,1.70
2011,04,06,08,47,1.70
2011,04,06,08,48,1.80
2011,04,06,08,49,1.80
2011,04,06,08,50,1.80
2011,04,06,08,51,1.80
2011,04,06,08,52,1.90
2011,04,06,08,53,1.90
2011,04,06,08,54,1.90
2011,04,06,08,55,1.90
2011,04,06,08,56,1.90
2011,04,06,08,57,1.90
2011,04,06,08,58,2.00
2011,04,06,08,59,2.00
2011,04,06,09,00,2.10
2011,04,06,09,01,2.10
2011,04,06,09,02,2.10
2011,04,06,09,03,2.10
2011,04,06,09,04,2.10
2011,04,06,09,05,2.10
2011,04,06,09,06,2.10
2011,04,06,09,07,2.10
2011,04,06,09,08,2.10
2011,04,06,09,09,2.10
2011,04,06,09,10,2.10
2011,04,06,09,11,2.10
2011,04,06,09,12,2.10
2011,04,06,09,13,2.10
2011,04,06,09,14,2.10
2011,04,06,09,15,2.10
2011,04,06,09,16,2.10
2011,04,06,09,17,2.10
2011,04,06,09,18,2.10
2011,04,06,09,19,2.20
2011,04,06,09,20,2.20
2011,04,06,09,21,2.20
2011,04,06,09,22,2.30
2011,04,06,09,23,2.30
2011,04,06,09,24,2.40
2011,04,06,09,25,2.40
2011,04,06,09,26,2.40
2011,04,06,09,27,2.40
2011,04,06,09,28,2.50
2011,04,06,09,29,2.50
2011,04,06,09,30,2.50
2011,04,06,09,31,2.50
2011,04,06,09,32,2.60
2011,04,06,09,33,2.60
2011,04,06,09,34,2.70
2011,04,06,09,35,2.80
2011,04,06,09,36,2.90
2011,04,06,09,37,2.90
2011,04,06,09,38,2.90
2011,04,06,09,39,3.00
2011,04,06,09,40,3.00
2011,04,06,09,41,3.10
2011,04,06,09,42,3.10
2011,04,06,09,43,3.20
2011,04,06,09,44,3.20
2011,04,06,09,45,3.20
2011,04,06,09,46,3.20
2011,04,06,09,47,3.20
2011,04,06,09,48,3.20
2011,04,06,09,49,3.30
2011,04,06,09,50,3.30
2011,04,06,09,51,3.40
2011,04,06,09,52,3.40
2011,04,06,09,53,3.50
2011,04,06,09,54,3.60
2011,04,06,09,55,3.60
2011,04,06,09,56,3.60
2011,04,06,09,57,3.70
2011,04,06,09,58,3.70
2011,04,06,09,59,3.70
2011,04,06,10,00,3.70
2011,04,06,10,01,3.70
2011,04,06,10,02,3.70
2011,04,06,10,03,3.70
2011,04,06,10,04,3.70
2011,04,06,10,05,3.70
2011,04,06,10,06,3.70
2011,04,06,10,07,3.80
2011,04,06,10,08,3.80
2011,04,06,10,09,3.90
2011,04,06,10,10,3.90
2011,04,06,10,11,3.90
2011,04,06,10,12,4.00
2011,04,06,10,13,4.00
2011,04,06,10,14,4.10
2011,04,06,10,15,4.10
2011,04,06,10,16,4.20
2011,04,06,10,17,4.30
2011,04,06,10,18,4.40
2011,04,06,10,19,4.40
2011,04,06,10,20,4.50
2011,04,06,10,21,4.60
2011,04,06,10,22,4.60
2011,04,06,10,23,4.70
2011,04,06,10,24,4.70
2011,04,06,10,25,4.70
2011,04,06,10,26,4.80
2011,04,06,10,27,4.80
2011,04,06,10,28,4.80
2011,04,06,10,29,4.80
2011,04,06,10,30,4.90
2011,04,06,10,31,5.00
2011,04,06,10,32,5.10
2011,04,06,10,33,5.10
2011,04,06,10,34,5.20
2011,04,06,10,35,5.20
2011,04,06,10,36,5.20
2011,04,06,10,37,5.30
2011,04,06,10,38,5.30
2011,04,06,10,39,5.30
2011,04,06,10,40,5.40
2011,04,06,10,41,5.40
2011,04,06,10,42,5.40
2011,04,06,10,43,5.40
2011,04,06,10,44,5.50
2011,04,06,10,45,5.50
2011,04,06,10,46,5.60
2011,04,06,10,47,5.60
2011,04,06,10,48,5.60
2011,04,06,10,49,5.70
2011,04,06,10,50,5.70
2011,04,06,10,51,5.80
2011,04,06,10,52,5.90
2011,04,06,10,53,5.90
2011,04,06,10,54,6.00
2011,04,06,10,55,6.10
2011,04,06,10,56,6.10
2011,04,06,10,57,6.10
2011,04,06,10,58,6.10
2011,04,06,10,59,6.20
2011,04,06,11,00,6.20
2011,04,06,11,01,6.20
2011,04,06,11,02,6.20
2011,04,06,11,03,6.30
2011,04,06,11,04,6.30
2011,04,06,11,05,6.50
2011,04,06,11,06,6.60
2011,04,06,11,07,6.70
2011,04,06,11,08,6.80
2011,04,06,11,09,6.90
2011,04,06,11,10,6.90
2011,04,06,11,11,6.90
2011,04,06,11,12,7.00
2011,04,06,11,13,7.00
2011,04,06,11,14,7.00
2011,04,06,11,15,6.90
2011,04,06,11,16,6.90
2011,04,06,11,17,7.00
2011,04,06,11,18,7.00
2011,04,06,11,19,7.10
2011,04,06,11,20,7.10
2011,04,06,11,21,7.20
2011,04,06,11,22,7.20
2011,04,06,11,23,7.30
2011,04,06,11,24,7.40
2011,04,06,11,25,7.40
2011,04,06,11,26,7.40
2011,04,06,11,27,7.40
2011,04,06,11,28,7.50
2011,04,06,11,29,7.50
2011,04,06,11,30,7.50
2011,04,06,11,31,7.60
2011,04,06,11,32,7.60
2011,04,06,11,33,7.60
2011,04,06,11,34,7.70
2011,04,06,11,35,7.70
2011,04,06,11,36,7.80
2011,04,06,11,37,7.80
2011,04,06,11,38,7.80
2011,04,06,11,39,7.80
2011,04,06,11,40,7.80
2011,04,06,11,41,7.90
2011,04,06,11,42,7.90
2011,04,06,11,43,8.00
2011,04,06,11,44,8.10
2011,04,06,11,45,8.00
2011,04,06,11,46,8.00
2011,04,06,11,47,8.00
2011,04,06,11,48,8.00
2011,04,06,11,49,8.00
2011,04,06,11,50,8.00
2011,04,06,11,51,8.00
2011,04,06,11,52,8.30
2011,04,06,11,53,8.40
2011,04,06,11,54,8.60
2011,04,06,11,55,8.60
2011,04,06,11,56,8.70
2011,04,06,11,57,8.70
2011,04,06,11,58,8.70
2011,04,06,11,59,8.80
2011,04,06,12,00,8.80
2011,04,06,12,01,8.80
2011,04,06,12,02,8.70
2011,04,06,12,03,8.70
2011,04,06,12,04,8.60
2011,04,06,12,05,8.50
2011,04,06,12,06,8.40
2011,04,06,12,07,8.20
2011,04,06,12,08,8.10
2011,04,06,12,09,8.00
2011,04,06,12,10,7.90
2011,04,06,12,11,7.90
2011,04,06,12,12,7.90
2011,04,06,12,13,7.90
2011,04,06,12,14,7.80
2011,04,06,12,15,7.80
2011,04,06,12,16,7.80
2011,04,06,12,17,7.80
2011,04,06,12,18,7.80
2011,04,06,12,19,7.80
2011,04,06,12,20,7.90
2011,04,06,12,21,7.80
2011,04,06,12,22,7.80
2011,04,06,12,23,7.80
2011,04,06,12,24,7.90
2011,04,06,12,25,7.90
2011,04,06,12,26,7.90
2011,04,06,12,27,7.90
2011,04,06,12,28,7.80
2011,04,06,12,29,7.80
2011,04,06,12,30,7.70
2011,04,06,12,31,7.70
2011,04,06,12,32,7.60
2011,04,06,12,33,7.60
2011,04,06,12,34,7.60
2011,04,06,12,35,7.70
2011,04,06,12,36,7.70
2011,04,06,12,37,7.80
2011,04,06,12,38,7.80
2011,04,06,12,39,7.80
2011,04,06,12,40,7.90
2011,04,06,12,41,7.90
2011,04,06,12,42,8.00
2011,04,06,12,43,8.00
2011,04,06,12,44,8.00
2011,04,06,12,45,8.00
2011,04,06,12,46,7.90
2011,04,06,12,47,7.80
2011,04,06,12,48,7.80
2011,04,06,12,49,7.70
2011,04,06,12,50,7.70
2011,04,06,12,51,7.70
2011,04,06,12,52,7.70
2011,04,06,12,53,7.70
2011,04,06,12,54,7.70
2011,04,06,12,55,7.70
2011,04,06,12,56,7.70
2011,04,06,12,57,7.70
2011,04,06,12,58,7.70
2011,04,06,12,59,7.70
2011,04,06,13,00,7.70
2011,04,06,13,01,7.80
2011,04,06,13,02,7.70
2011,04,06,13,03,7.70
2011,04,06,13,04,7.70
2011,04,06,13,05,7.70
2011,04,06,13,06,7.70
2011,04,06,13,07,7.70
2011,04,06,13,08,7.70
2011,04,06,13,09,7.70
2011,04,06,13,10,7.70
2011,04,06,13,11,7.80
2011,04,06,13,12,7.80
2011,04,06,13,13,7.80
2011,04,06,13,14,7.70
2011,04,06,13,15,7.70
2011,04,06,13,16,7.70
2011,04,06,13,17,7.80
2011,04,06,13,18,7.80
2011,04,06,13,19,7.80
2011,04,06,13,20,7.80
2011,04,06,13,21,7.80
2011,04,06,13,22,7.90
2011,04,06,13,23,7.90
2011,04,06,13,24,7.90
2011,04,06,13,25,7.90
2011,04,06,13,26,7.90
2011,04,06,13,27,7.90
2011,04,06,13,28,8.00
2011,04,06,13,29,8.00
2011,04,06,13,30,8.00
2011,04,06,13,31,8.00
2011,04,06,13,32,8.10
2011,04,06,13,33,8.10
2011,04,06,13,34,8.10
2011,04,06,13,35,8.20
2011,04,06,13,36,8.20
2011,04,06,13,37,8.30
2011,04,06,13,38,8.50
2011,04,06,13,39,8.50
2011,04,06,13,40,8.60
2011,04,06,13,41,8.60
2011,04,06,13,42,8.70
2011,04,06,13,43,8.70
2011,04,06,13,44,8.80
2011,04,06,13,45,8.90
2011,04,06,13,46,9.00
2011,04,06,13,47,9.00
2011,04,06,13,48,9.10
2011,04,06,13,49,9.10
2011,04,06,13,50,9.10
2011,04,06,13,51,9.10
2011,04,06,13,52,9.10
2011,04,06,13,53,9.10
2011,04,06,13,54,9.10
2011,04,06,13,55,9.10
2011,04,06,13,56,9.10
2011,04,06,13,57,8.80
2011,04,06,13,58,8.70
2011,04,06,13,59,8.70
2011,04,06,14,00,8.70
2011,04,06,14,01,8.70
2011,04,06,14,02,8.80
2011,04,06,14,03,8.90
2011,04,06,14,04,9.00
2011,04,06,14,05,9.10
2011,04,06,14,06,9.20
2011,04,06,14,07,9.20
2011,04,06,14,08,9.20
2011,04,06,14,09,9.20
2011,04,06,14,10,9.20
2011,04,06,14,11,9.20
2011,04,06,14,12,9.20
2011,04,06,14,13,9.20
2011,04,06,14,14,9.30
2011,04,06,14,15,9.30
2011,04,06,14,16,9.30
2011,04,06,14,17,9.30
2011,04,06,14,18,9.30
2011,04,06,14,19,9.30
2011,04,06,14,20,9.40
2011,04,06,14,21,9.50
2011,04,06,14,22,9.60
2011,04,06,14,23,9.70
2011,04,06,14,24,9.70
2011,04,06,14,25,9.60
2011,04,06,14,26,9.70
2011,04,06,14,27,9.70
2011,04,06,14,28,9.60
2011,04,06,14,29,9.70
2011,04,06,14,30,9.70
2011,04,06,14,31,9.70
2011,04,06,14,32,9.70
2011,04,06,14,33,9.60
2011,04,06,14,34,9.50
2011,04,06,14,35,9.50
2011,04,06,14,36,9.40
2011,04,06,14,37,9.30
2011,04,06,14,38,9.30
2011,04,06,14,39,9.20
2011,04,06,14,40,9.00
2011,04,06,14,41,8.90
2011,04,06,14,42,8.80
2011,04,06,14,43,8.80
2011,04,06,14,44,8.90
2011,04,06,14,45,8.90
2011,04,06,14,46,8.80
2011,04,06,14,47,8.80
2011,04,06,14,48,8.80
2011,04,06,14,49,8.80
2011,04,06,14,50,8.80
2011,04,06,14,51,8.80
2011,04,06,14,52,8.80
2011,04,06,14,53,8.80
2011,04,06,14,54,8.80
2011,04,06,14,55,8.90
2011,04,06,14,56,8.80
2011,04,06,14,57,8.70
2011,04,06,14,58,8.70
2011,04,06,14,59,8.60
2011,04,06,15,00,8.60
2011,04,06,15,01,8.50
2011,04,06,15,02,8.50
2011,04,06,15,03,8.40
2011,04,06,15,04,8.30
2011,04,06,15,05,8.30
2011,04,06,15,06,8.30
2011,04,06,15,07,8.30
2011,04,06,15,08,8.30
2011,04,06,15,09,8.20
2011,04,06,15,10,8.10
2011,04,06,15,11,8.10
2011,04,06,15,12,8.00
2011,04,06,15,13,8.10
2011,04,06,15,14,8.10
2011,04,06,15,15,8.10
2011,04,06,15,16,8.10
2011,04,06,15,17,8.10
2011,04,06,15,18,8.10
2011,04,06,15,19,8.10
2011,04,06,15,20,8.00
2011,04,06,15,21,8.00
2011,04,06,15,22,7.90
2011,04,06,15,23,7.90
2011,04,06,15,24,7.90
2011,04,06,15,25,7.80
2011,04,06,15,26,7.80
2011,04,06,15,27,7.80
2011,04,06,15,28,7.80
2011,04,06,15,29,7.80
2011,04,06,15,30,7.70
2011,04,06,15,31,7.70
2011,04,06,15,32,7.70
2011,04,06,15,33,7.70
2011,04,06,15,34,7.70
2011,04,06,15,35,7.80
2011,04,06,15,36,7.80
2011,04,06,15,37,7.80
2011,04,06,15,38,7.80
2011,04,06,15,39,7.80
2011,04,06,15,40,7.80
2011,04,06,15,41,7.80
2011,04,06,15,42,7.80
2011,04,06,15,43,7.80
2011,04,06,15,44,7.80
2011,04,06,15,45,7.80
2011,04,06,15,46,7.80
2011,04,06,15,47,7.90
2011,04,06,15,48,7.90
2011,04,06,15,49,7.90
2011,04,06,15,50,7.90
2011,04,06,15,51,7.90
2011,04,06,15,52,8.00
2011,04,06,15,53,8.00
2011,04,06,15,54,8.10
2011,04,06,15,55,8.10
2011,04,06,15,56,8.00
2011,04,06,15,57,8.00
2011,04,06,15,58,7.90
2011,04,06,15,59,7.80
2011,04,06,16,00,7.80
2011,04,06,16,01,7.80
2011,04,06,16,02,7.80
2011,04,06,16,03,7.80
2011,04,06,16,04,7.80
2011,04,06,16,05,7.90
2011,04,06,16,06,7.90
2011,04,06,16,07,7.90
2011,04,06,16,08,8.00
2011,04,06,16,09,8.10
2011,04,06,16,10,8.10
2011,04,06,16,11,8.10
2011,04,06,16,12,8.00
2011,04,06,16,13,8.00
2011,04,06,16,14,7.90
2011,04,06,16,15,7.90
2011,04,06,16,16,7.80
2011,04,06,16,17,7.80
2011,04,06,16,18,7.80
2011,04,06,16,19,7.80
2011,04,06,16,20,7.90
2011,04,06,16,21,7.90
2011,04,06,16,22,8.00
2011,04,06,16,23,8.00
2011,04,06,16,24,8.10
2011,04,06,16,25,8.00
2011,04,06,16,26,8.00
2011,04,06,16,27,7.90
2011,04,06,16,28,7.80
2011,04,06,16,29,7.80
2011,04,06,16,30,7.80
2011,04,06,16,31,7.80
2011,04,06,16,32,7.80
2011,04,06,16,33,7.80
2011,04,06,16,34,7.80
2011,04,06,16,35,7.80
2011,04,06,16,36,7.80
2011,04,06,16,37,7.70
2011,04,06,16,38,7.60
2011,04,06,16,39,7.50
2011,04,06,16,40,7.40
2011,04,06,16,41,7.30
2011,04,06,16,42,7.30
2011,04,06,16,43,7.30
2011,04,06,16,44,7.40
2011,04,06,16,45,7.40
2011,04,06,16,46,7.40
2011,04,06,16,47,7.40
2011,04,06,16,48,7.40
2011,04,06,16,49,7.40
2011,04,06,16,50,7.40
2011,04,06,16,51,7.40
2011,04,06,16,52,7.40
2011,04,06,16,53,7.40
2011,04,06,16,54,7.30
2011,04,06,16,55,7.30
2011,04,06,16,56,7.30
2011,04,06,16,57,7.30
2011,04,06,16,58,7.30
2011,04,06,16,59,7.20
2011,04,06,17,00,7.10
2011,04,06,17,01,7.10
2011,04,06,17,02,7.00
2011,04,06,17,03,7.00
2011,04,06,17,04,6.90
2011,04,06,17,05,6.90
2011,04,06,17,06,6.80
2011,04,06,17,07,6.80
2011,04,06,17,08,6.70
2011,04,06,17,09,6.70
2011,04,06,17,10,6.70
2011,04,06,17,11,6.70
2011,04,06,17,12,6.70
2011,04,06,17,13,6.70
2011,04,06,17,14,6.60
2011,04,06,17,15,6.60
2011,04,06,17,16,6.60
2011,04,06,17,17,6.70
2011,04,06,17,18,6.70
2011,04,06,17,19,6.80
2011,04,06,17,20,6.80
2011,04,06,17,21,6.90
2011,04,06,17,22,6.90
2011,04,06,17,23,7.00
2011,04,06,17,24,7.00
2011,04,06,17,25,7.10
2011,04,06,17,26,7.10
2011,04,06,17,27,7.10
2011,04,06,17,28,7.00
2011,04,06,17,29,7.00
2011,04,06,17,30,6.90
2011,04,06,17,31,6.90
2011,04,06,17,32,6.90
2011,04,06,17,33,6.90
2011,04,06,17,34,6.90
2011,04,06,17,35,6.90
2011,04,06,17,36,6.90
2011,04,06,17,37,6.90
2011,04,06,17,38,6.90
2011,04,06,17,39,6.80
2011,04,06,17,40,6.80
2011,04,06,17,41,6.90
2011,04,06,17,42,6.90
2011,04,06,17,43,6.90
2011,04,06,17,44,6.90
2011,04,06,17,45,6.90
2011,04,06,17,46,6.90
2011,04,06,17,47,6.90
2011,04,06,17,48,6.90
2011,04,06,17,49,6.90
2011,04,06,17,50,6.80
2011,04,06,17,51,6.80
2011,04,06,17,52,6.70
2011,04,06,17,53,6.70
2011,04,06,17,54,6.70
2011,04,06,17,55,6.60
2011,04,06,17,56,6.60
2011,04,06,17,57,6.60
2011,04,06,17,58,6.60
2011,04,06,17,59,6.60
2011,04,06,18,00,6.60
2011,04,06,18,01,6.60
2011,04,06,18,02,6.70
2011,04,06,18,03,6.70
2011,04,06,18,04,6.70
2011,04,06,18,05,6.70
2011,04,06,18,06,6.70